�������l�o���
Date,Time,MP-1(��Sv/h),MP-2(��Sv/h),MP-3(��Sv/h),MP-4(��Sv/h),MP-5(��Sv/h),MP-6(��Sv/h),MP-7(��Sv/h),MP-8(��Sv/h),����,����(m/s),���J
2021/02/03,00:00,0.664,0.955,0.609,1.210,0.849,0.380,0.671,0.633,�k��,3.4,��
2021/02/03,00:10,0.662,0.956,0.608,1.209,0.851,0.379,0.670,0.631,�k�k��,5.7,��
2021/02/03,00:20,0.662,0.955,0.608,1.211,0.851,0.379,0.670,0.631,�k,5.4,��
2021/02/03,00:30,0.663,0.954,0.609,1.209,0.848,0.378,0.672,0.631,�k�k��,5.3,��
2021/02/03,00:40,0.663,0.956,0.608,1.210,0.848,0.379,0.670,0.633,�k�k��,5.3,��
2021/02/03,00:50,0.662,0.953,0.607,1.209,0.848,0.379,0.670,0.631,�k�k��,5.7,��
2021/02/03,01:00,0.666,0.955,0.607,1.209,0.849,0.379,0.672,0.631,�k�k��,5.6,��
2021/02/03,01:10,0.664,0.955,0.608,1.209,0.851,0.378,0.673,0.631,�k��,4.9,��
2021/02/03,01:20,0.664,0.956,0.608,1.209,0.851,0.378,0.670,0.631,�k��,3.5,��
2021/02/03,01:30,0.663,0.955,0.608,1.209,0.851,0.379,0.671,0.632,�k��,2.8,��
2021/02/03,01:40,0.662,0.956,0.610,1.208,0.851,0.378,0.670,0.634,�k��,2.6,��
2021/02/03,01:50,0.664,0.955,0.608,1.207,0.850,0.379,0.670,0.631,�k��,3.0,��
2021/02/03,02:00,0.663,0.954,0.608,1.210,0.851,0.377,0.671,0.632,�k�k��,2.0,��
2021/02/03,02:10,0.663,0.954,0.608,1.211,0.852,0.379,0.671,0.631,���k��,0.9,��
2021/02/03,02:20,0.663,0.952,0.608,1.207,0.852,0.379,0.671,0.632,��,0.8,��
2021/02/03,02:30,0.664,0.951,0.606,1.208,0.851,0.380,0.672,0.632,��쐼,2.3,��
2021/02/03,02:40,0.664,0.955,0.607,1.209,0.852,0.379,0.669,0.631,�쐼,2.8,��
2021/02/03,02:50,0.664,0.955,0.607,1.209,0.850,0.379,0.670,0.633,��,2.2,��
2021/02/03,03:00,0.664,0.953,0.608,1.208,0.848,0.380,0.670,0.631,��쐼,3.1,��
2021/02/03,03:10,0.664,0.953,0.608,1.209,0.850,0.378,0.671,0.629,�쐼,3.3,��
2021/02/03,03:20,0.664,0.952,0.608,1.209,0.852,0.378,0.671,0.631,��쐼,3.0,��
2021/02/03,03:30,0.664,0.955,0.607,1.208,0.850,0.379,0.670,0.630,��,3.0,��
2021/02/03,03:40,0.663,0.956,0.607,1.208,0.849,0.379,0.669,0.631,��,3.1,��
2021/02/03,03:50,0.664,0.954,0.607,1.207,0.850,0.380,0.670,0.633,��쐼,2.3,��
2021/02/03,04:00,0.663,0.953,0.607,1.209,0.851,0.379,0.669,0.629,��,1.7,��
2021/02/03,04:10,0.663,0.954,0.608,1.210,0.850,0.378,0.670,0.632,���쐼,1.1,��
2021/02/03,04:20,0.664,0.952,0.608,1.211,0.850,0.378,0.667,0.631,��,1.1,��
2021/02/03,04:30,0.664,0.954,0.607,1.207,0.851,0.379,0.670,0.632,��,2.6,��
2021/02/03,04:40,0.665,0.952,0.607,1.209,0.851,0.378,0.670,0.631,��쐼,2.2,��
2021/02/03,04:50,0.665,0.954,0.608,1.208,0.848,0.379,0.670,0.631,���쐼,2.3,��
2021/02/03,05:00,0.663,0.954,0.609,1.210,0.849,0.379,0.670,0.631,��,4.2,��
2021/02/03,05:10,0.664,0.954,0.606,1.205,0.849,0.379,0.668,0.632,��,5.1,��
2021/02/03,05:20,0.664,0.954,0.609,1.210,0.849,0.378,0.670,0.631,��,7.7,��
2021/02/03,05:30,0.664,0.953,0.609,1.207,0.848,0.378,0.670,0.631,��,7.6,��
2021/02/03,05:40,0.662,0.953,0.607,1.209,0.852,0.379,0.672,0.630,��,6.3,��
2021/02/03,05:50,0.665,0.954,0.610,1.207,0.849,0.377,0.669,0.632,���쐼,4.2,��
2021/02/03,06:00,0.664,0.954,0.610,1.211,0.850,0.380,0.670,0.632,��,2.6,��
2021/02/03,06:10,0.667,0.953,0.608,1.208,0.848,0.379,0.671,0.631,��,4.2,��
2021/02/03,06:20,0.666,0.955,0.608,1.208,0.850,0.379,0.669,0.631,���k��,2.5,��
2021/02/03,06:30,0.664,0.954,0.607,1.210,0.850,0.378,0.671,0.631,-,CALM,��
2021/02/03,06:40,0.664,0.953,0.608,1.208,0.849,0.378,0.671,0.631,���쐼,5.2,�L
2021/02/03,06:50,0.664,0.953,0.607,1.207,0.849,0.378,0.671,0.632,���쐼,9.5,��
2021/02/03,07:00,0.665,0.953,0.608,1.209,0.848,0.378,0.672,0.632,���쐼,9.8,��
2021/02/03,07:10,0.663,0.953,0.607,1.207,0.849,0.379,0.671,0.632,���쐼,7.5,��
2021/02/03,07:20,0.665,0.950,0.609,1.208,0.849,0.379,0.671,0.632,���k��,8.1,��
2021/02/03,07:30,0.664,0.953,0.607,1.206,0.847,0.377,0.672,0.632,���k��,7.8,��
2021/02/03,07:40,0.664,0.953,0.608,1.208,0.847,0.377,0.671,0.632,���k��,7.4,�L
2021/02/03,07:50,0.665,0.955,0.610,1.212,0.850,0.378,0.672,0.633,�k�k��,5.9,�L
2021/02/03,08:00,0.666,0.955,0.606,1.211,0.852,0.379,0.671,0.632,�k��,4.0,�L
2021/02/03,08:10,0.666,0.955,0.608,1.207,0.852,0.378,0.671,0.632,�k��,3.0,�L
2021/02/03,08:20,0.666,0.954,0.610,1.210,0.849,0.378,0.672,0.633,�k��,3.0,��
2021/02/03,08:30,0.666,0.953,0.609,1.210,0.853,0.380,0.672,0.633,�k�k��,3.1,��
2021/02/03,08:40,0.665,0.951,0.607,1.208,0.851,0.379,0.673,0.632,�k�k��,3.7,��
2021/02/03,08:50,0.665,0.953,0.607,1.211,0.848,0.378,0.672,0.631,�k�k��,3.8,��
2021/02/03,09:00,0.665,0.953,0.610,1.210,0.847,0.379,0.671,0.631,�k�k��,3.2,��
2021/02/03,09:10,0.667,0.955,0.608,1.210,0.850,0.379,0.672,0.633,�k�k��,3.9,��
2021/02/03,09:20,0.669,0.953,0.608,1.210,0.852,0.378,0.670,0.632,�k�k��,5.2,��
2021/02/03,09:30,0.665,0.952,0.609,1.208,0.851,0.379,0.674,0.632,�k�k��,3.8,��
2021/02/03,09:40,0.665,0.952,0.611,1.208,0.850,0.380,0.672,0.632,���k��,4.0,��
2021/02/03,09:50,0.665,0.952,0.610,1.208,0.849,0.379,0.670,0.632,�k�k��,4.9,��
2021/02/03,10:00,0.666,0.955,0.609,1.211,0.852,0.380,0.670,0.633,�k��,5.6,��
2021/02/03,10:10,0.666,0.952,0.608,1.209,0.852,0.379,0.669,0.631,�k��,6.4,��
2021/02/03,10:20,0.664,0.953,0.609,1.207,0.851,0.377,0.671,0.631,�k��,5.9,�L
2021/02/03,10:30,0.665,0.950,0.610,1.208,0.851,0.378,0.670,0.632,�k�k��,7.7,��
2021/02/03,10:40,0.666,0.952,0.610,1.212,0.853,0.380,0.671,0.631,�k�k��,7.3,��
2021/02/03,10:50,0.666,0.951,0.611,1.212,0.852,0.381,0.670,0.631,�k��,5.0,�L
2021/02/03,11:00,0.667,0.953,0.611,1.211,0.851,0.380,0.671,0.632,���k��,6.0,��
2021/02/03,11:10,0.667,0.953,0.609,1.208,0.852,0.381,0.670,0.632,�k��,6.2,��
2021/02/03,11:20,0.667,0.954,0.610,1.209,0.851,0.380,0.671,0.632,�k��,9.1,��
2021/02/03,11:30,0.666,0.956,0.612,1.209,0.851,0.379,0.671,0.634,�k��,10.5,��
2021/02/03,11:40,0.667,0.957,0.609,1.208,0.853,0.380,0.669,0.630,�k��,9.5,��
2021/02/03,11:50,0.666,0.957,0.610,1.210,0.852,0.380,0.670,0.631,�k��,9.2,��
2021/02/03,12:00,0.667,0.958,0.609,1.210,0.850,0.380,0.669,0.631,�k��,8.5,��
2021/02/03,12:10,0.666,0.956,0.611,1.210,0.852,0.378,0.670,0.632,�k��,7.2,��
2021/02/03,12:20,0.664,0.958,0.613,1.212,0.851,0.380,0.671,0.633,�k��,7.3,��
2021/02/03,12:30,0.665,0.960,0.610,1.212,0.854,0.380,0.671,0.631,�k��,6.7,��
2021/02/03,12:40,0.666,0.956,0.610,1.210,0.853,0.378,0.670,0.632,�k�k��,4.9,��
2021/02/03,12:50,0.666,0.958,0.611,1.209,0.853,0.379,0.671,0.631,�k��,5.8,��
2021/02/03,13:00,0.665,0.955,0.609,1.212,0.852,0.380,0.669,0.632,�k��,3.6,��
2021/02/03,13:10,0.667,0.955,0.612,1.212,0.852,0.380,0.670,0.631,�k��,3.5,��
2021/02/03,13:20,0.664,0.957,0.610,1.210,0.855,0.379,0.672,0.634,�k��,8.6,��
2021/02/03,13:30,0.666,0.956,0.609,1.211,0.854,0.380,0.670,0.633,�k��,6.1,�L
2021/02/03,13:40,0.665,0.953,0.611,1.213,0.852,0.379,0.671,0.631,�k�k��,5.7,��
2021/02/03,13:50,0.667,0.955,0.611,1.210,0.852,0.379,0.674,0.632,�k�k��,4.0,��
2021/02/03,14:00,0.666,0.955,0.611,1.212,0.853,0.378,0.669,0.632,�k��,7.4,��
2021/02/03,14:10,0.664,0.954,0.611,1.210,0.852,0.379,0.670,0.633,�k��,6.5,��
2021/02/03,14:20,0.665,0.958,0.610,1.210,0.853,0.379,0.671,0.633,�k�k��,5.4,��
2021/02/03,14:30,0.666,0.958,0.610,1.211,0.851,0.379,0.672,0.633,�k��,5.3,��
2021/02/03,14:40,0.666,0.958,0.610,1.211,0.853,0.379,0.671,0.630,�k�k��,6.1,��
2021/02/03,14:50,0.666,0.956,0.609,1.209,0.852,0.379,0.671,0.632,�k�k��,6.2,��
2021/02/03,15:00,0.666,0.959,0.610,1.210,0.852,0.379,0.672,0.631,�k�k��,6.4,��
2021/02/03,15:10,0.667,0.957,0.610,1.212,0.853,0.380,0.672,0.634,�k�k��,5.1,��
2021/02/03,15:20,0.666,0.957,0.608,1.211,0.852,0.376,0.671,0.633,�k�k��,5.4,��
2021/02/03,15:30,0.667,0.955,0.608,1.213,0.852,0.379,0.671,0.631,�k�k��,4.4,��
2021/02/03,15:40,0.666,0.957,0.610,1.209,0.853,0.378,0.672,0.630,�k,3.3,��
2021/02/03,15:50,0.664,0.958,0.611,1.212,0.852,0.379,0.670,0.631,�k,4.8,��
2021/02/03,16:00,0.666,0.958,0.609,1.211,0.853,0.379,0.671,0.632,�k�k��,4.2,��
2021/02/03,16:10,0.666,0.959,0.610,1.213,0.853,0.378,0.670,0.632,�k,4.2,��
2021/02/03,16:20,0.664,0.958,0.609,1.210,0.851,0.379,0.670,0.631,�k�k��,3.8,��
2021/02/03,16:30,0.664,0.957,0.610,1.211,0.851,0.378,0.670,0.630,�k,3.1,��
2021/02/03,16:40,0.665,0.957,0.609,1.211,0.852,0.379,0.670,0.631,�k,4.1,��
2021/02/03,16:50,0.665,0.957,0.609,1.210,0.851,0.378,0.671,0.632,�k,4.3,��
2021/02/03,17:00,0.664,0.957,0.610,1.210,0.851,0.379,0.669,0.632,�k,2.8,��
2021/02/03,17:10,0.664,0.956,0.608,1.208,0.852,0.378,0.670,0.632,�k,3.6,��
2021/02/03,17:20,0.663,0.958,0.608,1.210,0.852,0.378,0.670,0.631,�k,4.2,��
2021/02/03,17:30,0.665,0.956,0.610,1.209,0.852,0.378,0.671,0.631,�k,3.6,��
2021/02/03,17:40,0.664,0.956,0.609,1.210,0.852,0.378,0.671,0.631,�k,3.0,��
2021/02/03,17:50,0.663,0.956,0.607,1.208,0.852,0.378,0.670,0.631,�k,3.0,��
2021/02/03,18:00,0.663,0.956,0.610,1.212,0.851,0.380,0.669,0.632,�k,2.5,��
2021/02/03,18:10,0.661,0.956,0.609,1.206,0.852,0.378,0.669,0.632,�k,3.1,��
2021/02/03,18:20,0.661,0.956,0.609,1.209,0.851,0.377,0.670,0.631,�k,3.5,��
2021/02/03,18:30,0.663,0.958,0.610,1.210,0.851,0.377,0.668,0.631,�k,3.4,��
2021/02/03,18:40,0.665,0.957,0.607,1.208,0.852,0.377,0.670,0.631,�k,3.9,��
2021/02/03,18:50,0.662,0.956,0.609,1.207,0.851,0.377,0.670,0.631,�k,4.6,��
2021/02/03,19:00,0.663,0.956,0.607,1.210,0.852,0.377,0.670,0.631,�k,4.8,��
2021/02/03,19:10,0.663,0.955,0.607,1.210,0.853,0.378,0.671,0.632,�k,4.4,��
2021/02/03,19:20,0.663,0.954,0.609,1.209,0.852,0.376,0.670,0.633,�k,4.5,��
2021/02/03,19:30,0.663,0.956,0.607,1.210,0.851,0.377,0.671,0.631,�k,5.4,��
2021/02/03,19:40,0.662,0.956,0.607,1.207,0.850,0.376,0.670,0.631,�k,5.2,��
2021/02/03,19:50,0.663,0.958,0.610,1.208,0.850,0.376,0.668,0.631,�k�k��,3.1,��
2021/02/03,20:00,0.661,0.957,0.608,1.209,0.851,0.378,0.670,0.630,�k�k��,3.8,��
2021/02/03,20:10,0.663,0.958,0.608,1.210,0.853,0.378,0.671,0.632,�k�k��,3.6,��
2021/02/03,20:20,0.660,0.957,0.608,1.208,0.850,0.378,0.670,0.630,�k�k��,4.2,��
2021/02/03,20:30,0.662,0.957,0.609,1.208,0.850,0.378,0.670,0.632,�k�k��,4.2,��
2021/02/03,20:40,0.663,0.955,0.606,1.208,0.851,0.377,0.671,0.632,�k�k��,5.3,��
2021/02/03,20:50,0.664,0.957,0.606,1.210,0.851,0.377,0.669,0.632,�k�k��,6.4,��
2021/02/03,21:00,0.660,0.958,0.609,1.210,0.854,0.377,0.669,0.632,�k�k��,6.4,��
2021/02/03,21:10,0.663,0.956,0.607,1.210,0.851,0.376,0.669,0.631,�k�k��,5.3,��
2021/02/03,21:20,0.663,0.955,0.608,1.209,0.852,0.377,0.669,0.629,�k��,5.6,��
2021/02/03,21:30,0.665,0.954,0.608,1.210,0.853,0.377,0.669,0.631,�k��,6.9,��
2021/02/03,21:40,0.664,0.954,0.609,1.208,0.852,0.378,0.669,0.631,�k��,6.0,��
2021/02/03,21:50,0.663,0.957,0.608,1.211,0.852,0.376,0.669,0.631,���k��,4.9,��
2021/02/03,22:00,0.663,0.955,0.608,1.209,0.852,0.378,0.668,0.631,���k��,3.3,��
2021/02/03,22:10,0.665,0.956,0.607,1.210,0.852,0.378,0.671,0.631,�k��,4.1,��
2021/02/03,22:20,0.663,0.955,0.607,1.211,0.850,0.378,0.670,0.630,�k��,2.9,��
2021/02/03,22:30,0.661,0.956,0.608,1.207,0.852,0.378,0.669,0.631,���k��,2.0,��
2021/02/03,22:40,0.665,0.954,0.609,1.209,0.849,0.379,0.672,0.631,��,0.6,��
2021/02/03,22:50,0.663,0.955,0.608,1.210,0.851,0.378,0.670,0.631,-,CALM,��
2021/02/03,23:00,0.664,0.954,0.608,1.208,0.852,0.377,0.668,0.631,��쓌,0.6,��
2021/02/03,23:10,0.665,0.956,0.608,1.209,0.850,0.378,0.669,0.632,���k��,0.6,��
2021/02/03,23:20,0.663,0.954,0.609,1.210,0.849,0.379,0.669,0.631,�k��,0.8,��
2021/02/03,23:30,0.665,0.956,0.607,1.210,0.851,0.378,0.670,0.632,-,CALM,��
2021/02/03,23:40,0.664,0.956,0.608,1.209,0.849,0.377,0.669,0.631,-,CALM,��
2021/02/03,23:50,0.664,0.956,0.608,1.206,0.849,0.378,0.669,0.631,�k�k��,1.2,��
